User: anonymous   Login
Location: Unspecified
(0.0000°N, 0.0000°E)
Time: 02:39:05
(UTC+02:00)
Language:

CZ-4B DEB - Orbit

View from above orbital plane
View from above orbital plane
View from above satellite
View from above satellite

Ground track
Ground track

The orbit data is extracted from the following two-line orbital elements,

1 33411U 08053D   14294.76570437  .00031344  00000-0  17154-2 0  3154
2 33411 097.5074 312.1827 0010449 171.6613 188.4794 15.14135648327420
Epoch (UTC): 21 October 2014 18:22:36
Eccentricity: 0.0010449
inclination: 97.5074°
perigee height: 516 km
apogee height: 531 km
right ascension of ascending node: 312.1827°
argument of perigee: 171.6613°
revolutions per day: 15.14135648
mean anomaly at epoch: 188.4794°
orbit number at epoch: 32742

The dashed part of the orbit path shows where the satellite is in the earth's shadow,  

DLR